Location: Aufkirchen
(47.9603°N, 11.3653°E)
Time: 14:40:24
(UTC+01:00)

Transit 2A Rocket - Pass Details

Date: 10 December 2020
Orbit: 592 x 910 km, 66.7° (Epoch: 21 January)

Event Time Altitude Azimuth Distance (km) Brightness Sun altitude
Rises 07:02:50 0° 328° (NNW) 3,153 - -8.2°
Exits shadow 07:04:01 - 331° (NNW) 2,704 7.3 -8.0°
Reaches altitude 10° 07:05:28 10° 336° (NNW) 2,173 6.9 -7.8°
Maximum altitude 07:10:00 37° 44° (NE) 1,022 5.9 -7.1°
Drops below altitude 10° 07:14:13 10° 113° (ESE) 2,003 9.0 -6.5°
Sets 07:16:32 0° 122° (ESE) 2,874 10.7 -6.1°
